TimeAKDT,TemperatureF,Dew PointF,Humidity,Sea Level PressureIn,VisibilityMPH,Wind Direction,Wind SpeedMPH,Gust SpeedMPH,PrecipitationIn,Events,Conditions,WindDirDegrees,DateUTC
12:53 AM,59.0,57.0,93,29.74,10.0,NE,5.8,-,N/A,,Overcast,40,2013-08-30 08:53:00
1:53 AM,60.1,57.9,93,29.74,10.0,ENE,3.5,-,N/A,,Overcast,60,2013-08-30 09:53:00
2:53 AM,59.0,57.9,96,29.75,8.0,NE,3.5,-,0.02,Rain,Light Rain,40,2013-08-30 10:53:00
3:53 AM,59.0,57.9,96,29.76,10.0,NNE,6.9,-,0.01,Rain,Light Rain,30,2013-08-30 11:53:00
4:07 AM,59.0,57.2,94,29.76,10.0,NNE,4.6,-,0.00,Rain,Light Rain,30,2013-08-30 12:07:00
4:53 AM,59.0,57.9,96,29.78,5.0,NNE,3.5,-,0.03,Rain,Light Rain,20,2013-08-30 12:53:00
5:02 AM,59.0,57.2,94,29.77,8.0,NE,3.5,-,0.01,Rain,Light Rain,50,2013-08-30 13:02:00
5:29 AM,59.0,57.2,94,29.78,10.0,NE,5.8,-,0.01,Rain,Light Rain,40,2013-08-30 13:29:00
5:53 AM,59.0,57.9,96,29.78,10.0,ENE,3.5,-,0.03,Rain,Light Rain,60,2013-08-30 13:53:00
6:53 AM,59.0,57.9,96,29.81,10.0,Calm,Calm,-,0.00,,Overcast,0,2013-08-30 14:53:00
7:16 AM,60.8,59.0,94,29.81,10.0,NNE,5.8,-,N/A,,Overcast,20,2013-08-30 15:16:00
7:42 AM,60.8,59.0,94,29.83,10.0,ENE,3.5,-,N/A,,Overcast,60,2013-08-30 15:42:00
7:53 AM,61.0,59.0,93,29.83,10.0,Calm,Calm,-,N/A,,Overcast,0,2013-08-30 15:53:00
8:53 AM,62.1,60.1,93,29.85,10.0,Calm,Calm,-,0.01,,Overcast,0,2013-08-30 16:53:00
9:40 AM,62.6,60.8,94,29.87,10.0,NE,4.6,-,N/A,,Overcast,50,2013-08-30 17:40:00
9:53 AM,62.1,60.1,93,29.88,10.0,Calm,Calm,-,N/A,,Overcast,0,2013-08-30 17:53:00
10:00 AM,62.6,60.8,94,29.88,10.0,ENE,4.6,-,N/A,,Overcast,70,2013-08-30 18:00:00
10:12 AM,62.6,60.8,94,29.88,10.0,Variable,3.5,-,N/A,,Overcast,0,2013-08-30 18:12:00
10:53 AM,63.0,60.1,90,29.90,10.0,Calm,Calm,-,N/A,,Overcast,0,2013-08-30 18:53:00
11:53 AM,64.0,57.9,80,29.91,10.0,ENE,4.6,-,N/A,,Overcast,60,2013-08-30 19:53:00
1:53 PM,66.0,55.9,70,29.93,10.0,Calm,Calm,-,N/A,,Overcast,0,2013-08-30 21:53:00
2:53 PM,64.0,57.0,78,29.94,10.0,NNE,3.5,-,0.00,,Overcast,30,2013-08-30 22:53:00
3:53 PM,63.0,57.0,81,29.95,10.0,South,3.5,-,N/A,,Overcast,180,2013-08-30 23:53:00
4:16 PM,60.8,59.0,94,29.96,4.0,South,5.8,-,N/A,,Overcast,180,2013-08-31 00:16:00
4:53 PM,61.0,59.0,93,29.96,4.0,Calm,Calm,-,0.02,Rain,Light Rain,0,2013-08-31 00:53:00
5:00 PM,60.8,59.0,94,29.96,4.0,Calm,Calm,-,0.00,Rain,Light Rain,0,2013-08-31 01:00:00
5:09 PM,60.8,59.0,94,29.96,7.0,North,3.5,-,0.00,Rain,Light Rain,10,2013-08-31 01:09:00
5:19 PM,60.8,60.8,100,29.96,10.0,Calm,Calm,-,0.00,,Overcast,0,2013-08-31 01:19:00
5:53 PM,61.0,60.1,97,29.96,10.0,Calm,Calm,-,0.00,Rain,Light Rain,0,2013-08-31 01:53:00
6:53 PM,61.0,60.1,97,29.97,10.0,Calm,Calm,-,0.04,Rain,Light Rain,0,2013-08-31 02:53:00
7:53 PM,60.1,59.0,96,29.98,10.0,Calm,Calm,-,0.05,Rain,Light Rain,0,2013-08-31 03:53:00
8:53 PM,59.0,57.9,96,30.00,4.0,Calm,Calm,-,0.11,Rain,Rain,0,2013-08-31 04:53:00
9:05 PM,59.0,57.2,94,30.00,6.0,Calm,Calm,-,0.01,Rain,Light Rain,0,2013-08-31 05:05:00
9:53 PM,59.0,57.9,96,30.01,7.0,Calm,Calm,-,0.06,Rain,Light Rain,0,2013-08-31 05:53:00
10:11 PM,59.0,57.2,94,30.01,9.0,Calm,Calm,-,0.01,Rain,Light Rain,0,2013-08-31 06:11:00
10:53 PM,57.9,57.9,100,30.02,10.0,Calm,Calm,-,0.01,Rain,Light Rain,0,2013-08-31 06:53:00
11:53 PM,59.0,57.0,93,30.03,10.0,NNE,4.6,-,0.02,Rain,Light Rain,20,2013-08-31 07:53:00